Weather History for Corpus Christi, TX

Change the Weather History Date:

Tuesday, November 6, 2012

  Actual Average Record
Temperature  
Mean Temperature 71 °F 69 °F  
Max Temperature 84 °F 79 °F 94 °F (1963)
Min Temperature 58 °F 59 °F 40 °F (1951)
Degree Days  
Heating Degree Days 0 2  
Month to date heating degree days 0 7  
Since 1 July heating degree days 9 17  
Cooling Degree Days 6 6  
Month to date cooling degree days 66 37  
Year to date cooling degree days 4269 3388  
Growing Degree Days 21 (Base 50)    
Moisture  
Dew Point 54 °F    
Average Humidity 56    
Maximum Humidity 90    
Minimum Humidity 22    
Precipitation  
Precipitation 0.00 in 0.08 in 2.81 in (1892)
Month to date precipitation 0.37 0.52  
Year to date precipitation 18.57 28.48  
Snow  
Snow 0.00 in - - ()
Month to date snowfall 0.0  
Since 1 July snowfall 0.0  
Since 1 September snowfall 0.0  
Snow Depth 0.00 in    
Sea Level Pressure  
Sea Level Pressure 30.08 in    
Wind  
Wind Speed 9 mph (ENE)    
Max Wind Speed 21 mph    
Max Gust Speed 24 mph    
Visibility 10 miles    
Events Thunderstorm    
T = Trace of Precipitation, MM = Missing Value Source: NWS Daily Summary

Daily Weather History Graph

Daily Weather History Graph

Search for Another Location

Airport:

Trip Planner

Search our weather history database for the weather conditions in past years. The results will help you decide how hot, cold, wet, or windy it might be!

Date:

Astronomy

Nov. 06, 2012 Rise Set
Actual Time 6:44 AM CST 5:42 PM CST
Civil Twilight 6:20 AM CST 6:06 PM CST
Nautical Twilight 5:52 AM CST 6:34 PM CST
Astronomical Twilight 5:24 AM CST 7:02 PM CST
Moon No Moon Rise 12:42 PM CST (11/6)
Length of Visible Light 11h 46m
Length of Day
10h 57m
Waning Gibbous, 53% of the Moon is Illuminated
Nov 6
Waning Gibbous
Nov 6
Last Quarter
Nov 13
New
Nov 20
First Quarter
Nov 28
Full

Hourly Weather History & Observations

Time (CST) Temp. Heat Index Dew Point Humidity Pressure Visibility Wind Dir Wind Speed Gust Speed Precip Events Conditions
12:41 AM 71.6 °F - 66.2 °F 83% 29.99 in 10.0 mi WSW 3.5 mph - N/A Thunderstorm Thunderstorm
12:51 AM 71.1 °F - 66.9 °F 87% 29.98 in 10.0 mi SW 4.6 mph - N/A Thunderstorm Thunderstorm
1:37 AM 71.6 °F - 68.0 °F 88% 30.02 in 10.0 mi North 11.5 mph 16.1 mph N/A Thunderstorm Thunderstorm
1:51 AM 75.0 °F - 69.1 °F 82% 30.03 in 10.0 mi North 5.8 mph 23.0 mph N/A Thunderstorm Thunderstorm
2:14 AM 73.4 °F - 66.2 °F 78% 30.03 in 10.0 mi NNE 10.4 mph - N/A Thunderstorm Thunderstorm
2:33 AM 71.6 °F - 66.2 °F 83% 30.02 in 10.0 mi NNE 9.2 mph - N/A   Partly Cloudy
2:51 AM 71.1 °F - 66.0 °F 84% 30.02 in 10.0 mi NE 13.8 mph - N/A   Partly Cloudy
3:51 AM 71.1 °F - 57.9 °F 63% 30.03 in 10.0 mi NE 11.5 mph - N/A   Partly Cloudy
4:51 AM 71.1 °F - 60.1 °F 68% 30.05 in 10.0 mi NE 11.5 mph - N/A   Mostly Cloudy
5:51 AM 72.0 °F - 55.9 °F 57% 30.07 in 10.0 mi ENE 16.1 mph - N/A   Mostly Cloudy
6:51 AM 70.0 °F - 59.0 °F 68% 30.09 in 10.0 mi NE 12.7 mph - N/A   Scattered Clouds
7:51 AM 71.1 °F - 59.0 °F 66% 30.12 in 10.0 mi NE 12.7 mph - N/A   Partly Cloudy
8:51 AM 75.0 °F - 57.0 °F 53% 30.13 in 10.0 mi ENE 12.7 mph - N/A   Partly Cloudy
9:51 AM 78.1 °F - 57.9 °F 50% 30.14 in 10.0 mi ENE 10.4 mph - N/A   Partly Cloudy
10:51 AM 80.1 °F 80.0 °F 54.0 °F 40% 30.14 in 10.0 mi NE 9.2 mph - N/A   Clear
11:51 AM 82.0 °F - 48.0 °F 30% 30.12 in 10.0 mi NNE 12.7 mph - N/A   Clear
12:51 PM 82.9 °F - 39.9 °F 22% 30.11 in 10.0 mi NE 12.7 mph - N/A   Clear
1:51 PM 82.9 °F - 46.9 °F 28% 30.08 in 10.0 mi ENE 10.4 mph - N/A   Clear
2:51 PM 84.0 °F - 44.1 °F 25% 30.07 in 10.0 mi ENE 10.4 mph - N/A   Clear
3:51 PM 82.0 °F - 48.0 °F 30% 30.07 in 10.0 mi ESE 6.9 mph - N/A   Clear
4:51 PM 80.1 °F - 48.0 °F 32% 30.07 in 10.0 mi East 4.6 mph - N/A   Clear
5:51 PM 73.9 °F - 48.0 °F 40% 30.09 in 10.0 mi East 8.1 mph - N/A   Clear
6:51 PM 70.0 °F - 46.9 °F 44% 30.10 in 10.0 mi SE 8.1 mph - N/A   Clear
7:51 PM 66.0 °F - 46.9 °F 50% 30.11 in 10.0 mi ESE 6.9 mph - N/A   Clear
8:51 PM 63.0 °F - 44.1 °F 50% 30.12 in 10.0 mi SSE 5.8 mph - N/A   Clear
9:51 PM 61.0 °F - 45.0 °F 56% 30.12 in 10.0 mi SSE 4.6 mph - N/A   Clear
10:51 PM 61.0 °F - 46.9 °F 60% 30.12 in 10.0 mi SE 3.5 mph - N/A   Clear
11:51 PM 57.9 °F - 45.0 °F 62% 30.12 in 10.0 mi Calm Calm - N/A   Clear